{"data":{"norad_id":68592,"epoch":"2026-05-25T02:36:23.943744Z","epoch_age_seconds":61550,"freshness":"FRESH","line1":"1 68592U 26072V   26145.10861046  .00039188  00000+0  10951-2 0  9997","line2":"2 68592  51.8655 288.9477 0011217 304.7626  55.2304 15.36253379  7827","mean_motion":15.36253379,"eccentricity":0.0011217,"inclination_deg":51.8655,"raan_deg":288.9477,"arg_perigee_deg":304.7626,"mean_anomaly_deg":55.2304,"bstar":0.0010951,"rev_number":782,"period_min":93.734537523839,"perigee_km":449.53294844367,"apogee_km":464.86734379727,"semimajor_km":6835.3371461205,"source":"CELESTRAK","updated_at":"2026-05-25T13:38:07.952771Z"}}